Jakarta Soekarno-Hatta, Indonesia

12:21 PM WIB on July 19, 2018 (GMT +0700)
Soekarno-Hatta International

Weather History for WIII - January, 2018

Change the Weather History Date:

Saturday, January 13, 2018

  Actual Average Record
Temperature  
Mean Temperature 82 °F -  
Max Temperature 87 °F - - ()
Min Temperature 78 °F - - ()
Cooling Degree Days 18    
Growing Degree Days 32 (Base 50)    
Moisture  
Dew Point 72 °F    
Average Humidity 68    
Maximum Humidity 84    
Minimum Humidity 53    
Precipitation  
Precipitation 0.39 in - - ()
Sea Level Pressure  
Sea Level Pressure 29.78 in    
Wind  
Wind Speed 6 mph ()    
Max Wind Speed 20 mph    
Max Gust Speed 21 mph    
Visibility 4.0 miles    
Events      
T = Trace of Precipitation, MM = Missing Value Source: Averaged Metar Reports

Daily Weather History Graph

Daily Weather History Graph

Search for Another Location

Airport or City:

Astronomy

Jan. 13, 2018 Rise Set
Actual Time 5:48 AM WIB 6:15 PM WIB
Civil Twilight 5:26 AM WIB 6:37 PM WIB
Nautical Twilight 4:59 AM WIB 7:03 PM WIB
Astronomical Twilight 4:33 AM WIB 7:30 PM WIB
Moon 2:38 AM WIB (1/13) 3:16 PM WIB (1/13)
Length of Visible Light 13h 11m
Length of Day
12h 26m
Waning Crescent, 13% of the Moon is Illuminated
Jan 13
Waning Crescent
Jan 17
New
Jan 25
First Quarter
Jan 31
Full
Feb 7
Last Quarter

Hourly Weather History & Observations

Time (WIB) Temp. Heat Index Dew Point Humidity Pressure Visibility Wind Dir Wind Speed Gust Speed Precip Events Conditions
12:00 AM 80.6 °F 86.2 °F 75.2 °F 84% 29.77 in 3.1 mi Variable 3.5 mph - N/A   Scattered Clouds
12:30 AM 80.6 °F 85.4 °F 73.4 °F 79% 29.77 in 2.5 mi WNW 3.5 mph - N/A   Scattered Clouds
1:00 AM 80 °F - 74 °F 78% 29.80 in 3 mi Calm Calm - -   Haze
1:00 AM 80.6 °F 85.4 °F 73.4 °F 79% 29.77 in 2.2 mi West 2.3 mph - N/A   Partly Cloudy
1:30 AM 78.8 °F - 73.4 °F 83% 29.77 in 1.9 mi West 3.5 mph - N/A   Partly Cloudy
2:00 AM 80.6 °F 85.4 °F 73.4 °F 79% 29.77 in - WNW 3.5 mph - N/A   Scattered Clouds
2:30 AM 80.6 °F 85.4 °F 73.4 °F 79% 29.77 in 2.2 mi WNW 4.6 mph - N/A   Scattered Clouds
3:00 AM 80.6 °F 83.9 °F 69.8 °F 70% 29.74 in 3.1 mi NW 8.1 mph - N/A   Partly Cloudy
3:30 AM 80.6 °F 84.6 °F 71.6 °F 74% 29.74 in 3.1 mi NW 8.1 mph - N/A   Scattered Clouds
4:00 AM 82 °F - 70 °F 60% 29.76 in 4 mi WNW 6.9 mph - -   Haze
4:00 AM 82.4 °F 87.2 °F 71.6 °F 70% 29.74 in 3.7 mi NW 8.1 mph - N/A   Scattered Clouds
4:30 AM 82.4 °F 86.3 °F 69.8 °F 66% 29.77 in 3.7 mi NW 10.4 mph - N/A   Mostly Cloudy
5:00 AM 82.4 °F 86.3 °F 69.8 °F 66% 29.77 in 3.7 mi NW 5.8 mph 17.3 mph N/A   Mostly Cloudy
5:30 AM 82.4 °F 86.3 °F 69.8 °F 66% 29.77 in 3.7 mi NW 9.2 mph 20.7 mph N/A   Mostly Cloudy
6:00 AM 80.6 °F 83.9 °F 69.8 °F 70% 29.77 in 4.3 mi NW 6.9 mph 18.4 mph N/A   Mostly Cloudy
6:30 AM 80.6 °F 83.9 °F 69.8 °F 70% 29.80 in 4.3 mi NW 6.9 mph 18.4 mph N/A   Mostly Cloudy
7:00 AM 81 °F - 69 °F 60% 29.82 in 5 mi WNW 6.9 mph - -   Overcast
7:00 AM 80.6 °F 83.9 °F 69.8 °F 70% 29.80 in 5.0 mi NW 9.2 mph - N/A   Overcast
7:30 AM 82.4 °F 86.3 °F 69.8 °F 66% 29.83 in 5.0 mi NW 8.1 mph - N/A   Mostly Cloudy
8:00 AM 82.4 °F 86.3 °F 69.8 °F 66% 29.83 in 5.0 mi NW 13.8 mph - N/A   Scattered Clouds
8:30 AM 82.4 °F 86.3 °F 69.8 °F 66% 29.83 in 5.0 mi NW 19.6 mph - N/A   Scattered Clouds
9:00 AM 82.4 °F 86.3 °F 69.8 °F 66% 29.83 in 5.0 mi NW 13.8 mph - N/A   Scattered Clouds
9:30 AM 84.2 °F 89.6 °F 71.6 °F 66% 29.83 in 5.0 mi NW 10.4 mph 17.3 mph N/A   Partly Cloudy
10:00 AM 84 °F - 72 °F 59% 29.83 in 5 mi NW 8.1 mph - -   Scattered Clouds
10:00 AM 84.2 °F 89.6 °F 71.6 °F 66% 29.83 in 5.0 mi NNW 9.2 mph - N/A   Partly Cloudy
10:30 AM 84.2 °F 89.6 °F 71.6 °F 66% 29.83 in 5.0 mi NW 8.1 mph - N/A   Partly Cloudy
11:00 AM 84.2 °F 89.6 °F 71.6 °F 66% 29.80 in 5.0 mi NW 6.9 mph - N/A   Partly Cloudy
11:30 AM 84.2 °F 90.9 °F 73.4 °F 70% 29.80 in 5.0 mi Variable 6.9 mph - N/A   Partly Cloudy
12:00 PM 86.0 °F 93.4 °F 73.4 °F 66% 29.77 in 5.0 mi NNW 8.1 mph - N/A   Partly Cloudy
12:30 PM 86.0 °F 93.4 °F 73.4 °F 66% 29.77 in 5.0 mi NNW 9.2 mph - N/A   Partly Cloudy
1:00 PM 86 °F - 73 °F 57% 29.76 in 5 mi NW 10.4 mph - -   Scattered Clouds
1:00 PM 86.0 °F 91.8 °F 71.6 °F 62% 29.77 in 5.0 mi NNW 9.2 mph - N/A   Partly Cloudy
1:30 PM 84.2 °F 89.6 °F 71.6 °F 66% 29.77 in 5.0 mi NNW 9.2 mph - N/A   Partly Cloudy
2:00 PM 87.8 °F 95.6 °F 73.4 °F 62% 29.74 in 5.0 mi NNW 9.2 mph - N/A   Partly Cloudy
2:30 PM 86.0 °F 91.8 °F 71.6 °F 62% 29.74 in 5.0 mi NNW 10.4 mph - N/A   Partly Cloudy
3:00 PM 86.0 °F 91.8 °F 71.6 °F 62% 29.74 in 5.0 mi NNW 9.2 mph - N/A   Partly Cloudy
3:30 PM 87.8 °F 93.8 °F 71.6 °F 58% 29.71 in 5.0 mi NNW 9.2 mph - N/A   Partly Cloudy
4:00 PM 87 °F - 72 °F 53% 29.73 in 5 mi NW 8.1 mph - -   Scattered Clouds
4:00 PM 87.8 °F 93.8 °F 71.6 °F 58% 29.71 in 5.0 mi NNW 9.2 mph - N/A   Partly Cloudy
4:30 PM 86.0 °F 91.8 °F 71.6 °F 62% 29.71 in 5.0 mi NW 8.1 mph - N/A   Partly Cloudy
5:00 PM 84.2 °F 89.6 °F 71.6 °F 66% 29.74 in 5.0 mi Variable 5.8 mph - N/A   Partly Cloudy
5:30 PM 84.2 °F 89.6 °F 71.6 °F 66% 29.74 in 3.1 mi NNW 5.8 mph - N/A   Haze
6:00 PM 84.2 °F 89.6 °F 71.6 °F 66% 29.74 in 3.1 mi NNW 5.8 mph - N/A   Haze
6:30 PM 82.4 °F 87.2 °F 71.6 °F 70% 29.77 in 3.1 mi Variable 3.5 mph - N/A   Haze
7:00 PM 83 °F - 72 °F 62% 29.78 in 3 mi WNW 6.9 mph - -   Haze
7:00 PM 82.4 °F 87.2 °F 71.6 °F 70% 29.77 in 3.1 mi NW 4.6 mph - N/A   Haze
7:30 PM 82.4 °F 87.2 °F 71.6 °F 70% 29.80 in 3.1 mi NW 4.6 mph - N/A   Haze
8:00 PM 82.4 °F 87.2 °F 71.6 °F 70% 29.80 in 3.1 mi NW 3.5 mph - N/A   Haze
8:30 PM 82.4 °F 88.2 °F 73.4 °F 74% 29.83 in 3.1 mi Variable 3.5 mph - N/A   Haze
9:00 PM 82.4 °F 88.2 °F 73.4 °F 74% 29.83 in 3.1 mi Variable 3.5 mph - N/A   Haze
9:30 PM 82.4 °F 88.2 °F 73.4 °F 74% 29.83 in 3.1 mi NW 2.3 mph - N/A   Haze
10:00 PM 82 °F - 73 °F 68% 29.83 in 3 mi WSW 2.3 mph - -   Haze
10:00 PM 80.6 °F 85.4 °F 73.4 °F 79% 29.83 in 3.1 mi WNW 2.3 mph - N/A   Haze
10:30 PM 80.6 °F 85.4 °F 73.4 °F 79% 29.83 in 3.1 mi West 10.4 mph - N/A   Haze
11:00 PM 78.8 °F - 73.4 °F 83% 29.83 in 3.1 mi WSW 13.8 mph - N/A   Haze